Flag for Mexico Weather past 2 weeks in Mexicali, Baja California, Mexico

Now
75 °F

Clear.


Feels Like: 78 °F
Forecast: 67 / 88 °F
Wind: 6 mph from Northwest

Location: Imperial County Airport

Current Time: Oct 26, 2014 at 12:25:04 AM

Latest Report: Oct 25, 2014 at 11:53 PM


Visibility: 10 mi

Pressure: 29.86 "Hg

Humidity: 50%

Dew point: 55 °F

Location of MexicaliLocation

Historic Weather in Mexicali — Graph

°F

Mexicali temperature yesterday

Maximum temperature yesterday: 95 °F (at 1:53 PM)
Minimum temperature yesterday: 68 °F (at 6:53 AM)
Average temperature yesterday: 82 °F

Past Weeks' High & Low Weather Summary

 TemperatureHumidityPressure
High98 °F (Oct 12, 4:53 PM)93% (Oct 11, 6:00 AM)30.01 "Hg (Oct 11, 6:00 AM)
Low58 °F (Oct 14, 6:53 AM)7% (Oct 13, 11:53 AM)27.00 "Hg (Oct 16, 10:20 PM)
Average79 °F37%29.83 "Hg
* Reported Oct 10 10:53 PM — Oct 25 10:53 PM, Mexicali, Weather by CustomWeather, © 2014

Note: Actual official high and low records may vary slightly from our data, if they occured in-between our weather recording intervals... More about our weather records

Advertising

Mexicali weather history for previous 24 hours

 ConditionsComfort  
Time TempWeatherWind HumidityBarometerVisibility
10:53 PM
Oct 25
76 °FClear.8 mph50%29.87 "Hg10 mi
9:53 PM77 °FClear.9 mph50%29.87 "Hg10 mi
8:53 PM78 °FClear.9 mph46%29.85 "Hg10 mi
7:53 PM83 °FClear.N/A32%29.84 "Hg10 mi
6:53 PM90 °FSunny.No wind24%29.82 "Hg10 mi
5:53 PM91 °FSunny.5 mph25%29.83 "Hg10 mi
4:53 PM94 °FSunny.7 mph21%29.83 "Hg10 mi
3:53 PM94 °FSunny.No wind20%29.85 "Hg10 mi
2:53 PM95 °FSunny.No wind19%29.87 "Hg10 mi
1:53 PM95 °FSunny.No wind20%29.89 "Hg10 mi
12:53 PM94 °FSunny.No wind21%29.91 "Hg10 mi
11:53 AM91 °FSunny.3 mph24%29.94 "Hg10 mi
10:53 AM88 °FPassing clouds.No wind27%29.96 "Hg10 mi
9:53 AM83 °FPassing clouds.3 mph31%29.97 "Hg10 mi
8:53 AM77 °FPassing clouds.3 mph42%29.96 "Hg10 mi
7:53 AM73 °FPassing clouds.3 mph44%29.93 "Hg10 mi
6:53 AM68 °FPassing clouds.5 mph59%29.92 "Hg9 mi
5:53 AM70 °FPassing clouds.5 mph47%29.91 "Hg10 mi
4:53 AM70 °FPassing clouds.No wind47%29.90 "Hg10 mi
3:53 AM73 °FClear.5 mph37%29.89 "Hg10 mi
2:53 AM71 °FClear.No wind42%29.90 "Hg10 mi
1:53 AM73 °FClear.No wind38%29.92 "Hg10 mi
12:53 AM72 °FClear.6 mph40%29.92 "Hg10 mi
Weather by CustomWeather, © 2014

See weather overviewHow to use our weather pages